KB0CVW Weather Reports


Display with metric or nautical units.
time (UTC)temp
F
wind
direction
speed
MPH
gust
MPH
rain 1hr
in
rain 24hr
in
rain mn
in
humidity
%
barometer
mb
20190916162623 69 287 1.0 3.0 0.00 0.00 0.00 89 996.6
20190916162123 69 270 2.0 4.0 0.00 0.00 0.00 88 996.5
20190916161622 69 281 2.0 4.0 0.00 0.00 0.00 89 996.5
20190916161122 69 291 1.0 3.0 0.00 0.00 0.00 89 996.6
20190916160625 69 293 1.0 3.0 0.00 0.00 0.00 89 996.6
20190916160123 69 276 1.0 3.0 0.00 0.00 0.00 90 996.4
20190916155643 68 334 1.0 2.0 0.00 0.00 0.00 90 996.4
20190916155122 68 347 1.0 3.0 0.00 0.00 0.00 91 996.4
20190916154622 67 295 1.0 3.0 0.00 0.00 0.00 92 996.5
20190916154124 67 223 1.0 3.0 0.00 0.00 0.00 93 996.5
20190916153622 66 243 1.0 3.0 0.00 0.00 0.00 93 996.4
20190916153123 66 76 1.0 3.0 0.00 0.00 0.00 93 996.4
20190916152643 65 233 1.0 3.0 0.00 0.00 0.00 93 996.4
20190916152122 65 251 1.0 4.0 0.00 0.00 0.00 93 996.3
20190916151623 65 298 1.0 4.0 0.00 0.00 0.00 94 996.3
20190916151145 65 13 1.0 3.0 0.00 0.00 0.00 94 996.4
20190916150623 65 287 0.0 3.0 0.00 0.00 0.00 95 996.4
20190916150123 65 281 1.0 4.0 0.00 0.00 0.00 95 996.0
20190916145623 65 285 1.0 4.0 0.00 0.00 0.00 95 996.0
20190916145123 65 310 1.0 5.0 0.00 0.00 0.00 95 996.0
20190916144626 65 310 1.0 5.0 0.00 0.00 0.00 96 996.1
20190916144122 64 289 1.0 4.0 0.00 0.00 0.00 96 996.1
20190916143623 64 276 1.0 3.0 0.00 0.00 0.00 96 995.9
20190916143122 64 275 1.0 2.0 0.00 0.00 0.00 97 995.9
20190916142622 64 286 0.0 2.0 0.00 0.00 0.00 97 995.9
20190916142127 64 300 0.0 1.0 0.00 0.00 0.00 97 995.8
20190916141623 64 312 0.0 4.0 0.00 0.00 0.00 97 995.8
20190916141125 63 289 1.0 6.0 0.00 0.00 0.00 97 995.7
20190916140643 63 288 1.0 6.0 0.00 0.00 0.00 97 995.7
20190916140123 64 291 0.0 6.0 0.00 0.00 0.00 98 995.8
20190916135622 63 276 1.0 6.0 0.00 0.00 0.00 98 995.8
20190916135122 63 80 0.0 3.0 0.00 0.00 0.00 98 995.8
20190916134626 63 292 0.0 3.0 0.00 0.00 0.00 98 995.5
20190916134122 63 292 0.0 3.0 0.00 0.00 0.00 98 995.5
20190916133623 63 113 1.0 5.0 0.00 0.00 0.00 99 995.4
20190916133123 63 137 1.0 5.0 0.00 0.00 0.00 99 995.4
20190916132623 63 257 1.0 2.0 0.00 0.00 0.00 99 995.4
20190916132126 62 357 0.0 2.0 0.00 0.00 0.00 99 995.2
20190916131623 62 276 0.0 3.0 0.00 0.00 0.00 99 995.2
20190916131124 62 291 1.0 3.0 0.00 0.00 0.00 99 995.2
20190916130623 62 282 0.0 3.0 0.00 0.00 0.00 99 995.2
20190916130123 62 284 0.0 2.0 0.00 0.00 0.00 99 995.3
20190916125644 62 322 0.0 2.0 0.00 0.00 0.00 99 995.3
20190916125122 62 315 0.0 2.0 0.00 0.00 0.00 99 995.3
20190916124623 62 349 0.0 1.0 0.00 0.00 0.00 99 995.2
20190916124127 62 284 0.0 2.0 0.00 0.00 0.00 99 995.2
20190916123622 62 332 0.0 3.0 0.00 0.00 0.00 99 994.9
20190916123122 62 59 0.0 3.0 0.00 0.00 0.00 99 994.9
20190916122623 62 147 0.0 2.0 0.00 0.00 0.00 99 994.9
20190916122123 62 90 0.0 2.0 0.00 0.00 0.00 99 994.7
20190916121623 62 270 0.0 3.0 0.00 0.00 0.00 99 994.7
20190916121144 62 270 0.0 3.0 0.00 0.00 0.00 99 994.6
20190916120626 62 58 1.0 2.0 0.00 0.00 0.00 99 994.6
20190916120122 62 38 1.0 3.0 0.00 0.00 0.00 99 994.4
20190916115622 62 307 0.0 3.0 0.00 0.00 0.00 99 994.4
20190916115122 62 259 0.0 2.0 0.00 0.00 0.00 99 994.4
20190916114623 62 300 0.0 2.0 0.00 0.00 0.00 99 994.5
20190916114123 62 332 0.0 2.0 0.00 0.00 0.00 99 994.5
20190916113623 62 307 0.0 2.0 0.00 0.00 0.00 99 994.3
20190916113126 62 284 0.0 2.0 0.00 0.00 0.00 99 994.3
20190916112622 62 287 0.0 2.0 0.00 0.00 0.00 99 994.3
20190916112124 62 256 0.0 2.0 0.00 0.00 0.00 99 994.1
20190916111622 63 116 0.0 2.0 0.00 0.00 0.00 99 994.1
20190916111123 63 87 1.0 4.0 0.00 0.00 0.00 99 994.0
20190916110623 63 299 1.0 4.0 0.00 0.00 0.00 99 994.0
20190916110124 64 277 1.0 4.0 0.00 0.00 0.00 99 993.7
20190916105624 64 360 0.0 0.0 0.00 0.00 0.00 99 993.7
20190916105143 65 270 0.0 1.0 0.00 0.00 0.00 99 993.7
20190916104626 65 270 0.0 1.0 0.00 0.00 0.00 99 993.7
20190916104122 65 334 0.0 3.0 0.00 0.00 0.00 99 993.7
20190916103622 66 338 1.0 3.0 0.00 0.00 0.00 99 993.4
20190916103123 66 300 1.0 3.0 0.00 0.00 0.00 99 993.4
20190916102623 66 294 0.0 2.0 0.00 0.00 0.00 99 993.4
20190916102122 66 15 0.0 2.0 0.00 0.00 0.00 99 993.4
20190916101622 66 52 0.0 2.0 0.00 0.00 0.00 99 993.4
20190916101125 66 321 0.0 2.0 0.00 0.00 0.00 99 993.3
20190916100644 66 270 0.0 2.0 0.00 0.00 0.00 99 993.3
20190916100123 66 270 0.0 0.0 0.00 0.00 0.00 99 993.3
20190916095622 66 270 0.0 0.0 0.00 0.00 0.00 99 993.2
20190916095122 66 23 0.0 0.0 0.00 0.00 0.00 99 993.2
20190916094624 66 134 0.0 2.0 0.00 0.00 0.00 99 993.0
20190916094123 66 120 0.0 2.0 0.00 0.00 0.00 99 993.0
20190916093623 66 63 0.0 2.0 0.00 0.00 0.00 99 993.0
20190916093122 66 271 0.0 2.0 0.00 0.00 0.00 99 993.0
20190916092627 66 278 0.0 2.0 0.00 0.00 0.00 99 993.0
20190916092123 66 283 0.0 2.0 0.00 0.00 0.00 99 992.9
20190916091629 66 68 0.0 1.0 0.00 0.00 0.00 99 992.9
20190916091122 66 68 0.0 1.0 0.00 0.00 0.00 99 992.8
20190916090622 67 255 0.0 2.0 0.00 0.00 0.00 99 992.8
20190916090122 67 255 0.0 2.0 0.00 0.00 0.00 99 992.8
20190916085643 67 280 0.0 2.0 0.00 0.00 0.00 99 992.7
20190916085127 67 275 0.0 2.0 0.00 0.00 0.00 99 992.7
20190916084622 66 266 0.0 2.0 0.00 0.00 0.00 99 992.7
20190916084123 67 36 0.0 2.0 0.00 0.00 0.00 99 992.7
20190916083623 67 36 0.0 2.0 0.00 0.00 0.00 99 992.6
20190916083122 66 136 0.0 3.0 0.00 0.00 0.00 99 992.6
20190916082623 66 136 0.0 3.0 0.00 0.00 0.00 99 992.6
20190916082124 66 118 0.0 2.0 0.00 0.00 0.00 99 992.6
20190916081622 67 118 0.0 2.0 0.00 0.00 0.00 99 992.6
20190916081122 66 113 0.0 0.0 0.00 0.00 0.00 99 992.7
20190916080622 66 45 0.0 0.0 0.00 0.00 0.00 99 992.7
20190916080144 66 225 0.0 0.0 0.00 0.00 0.00 99 992.7
20190916075623 66 248 0.0 0.0 0.00 0.00 0.00 99 992.6
20190916075123 66 270 0.0 0.0 0.00 0.00 0.00 99 992.6
20190916074625 66 270 0.0 0.0 0.00 0.00 0.00 99 992.5
20190916074122 66 90 0.0 0.0 0.00 0.00 0.00 99 992.5
20190916073622 66 360 0.0 0.0 0.00 0.00 0.00 99 992.5
20190916073122 66 90 0.0 0.0 0.00 0.00 0.00 99 992.5
20190916072622 66 90 0.0 0.0 0.00 0.00 0.00 99 992.5
20190916072123 66 68 0.0 0.0 0.00 0.00 0.00 99 992.4
20190916071623 66 270 0.0 0.0 0.00 0.00 0.00 99 992.4
20190916071126 66 113 0.0 0.0 0.00 0.00 0.00 99 992.4
20190916070623 66 90 0.0 0.0 0.00 0.00 0.00 99 992.4
20190916070122 66 90 0.0 0.0 0.00 0.00 0.00 99 992.4
20190916065627 66 113 0.0 0.0 0.00 0.00 0.00 99 992.4
20190916065123 66 90 0.0 0.0 0.00 0.00 0.00 99 992.4
20190916064623 66 315 0.0 0.0 0.00 0.00 0.00 99 992.3
20190916064122 66 113 0.0 0.0 0.00 0.00 0.00 99 992.3
20190916063622 66 113 0.0 0.0 0.00 0.00 0.00 99 992.2
20190916063122 66 68 0.0 0.0 0.00 0.00 0.00 99 992.2
20190916062622 67 225 0.0 0.0 0.00 0.00 0.00 99 992.2
20190916062123 67 103 0.0 2.0 0.00 0.00 0.00 99 992.2
20190916061626 67 105 1.0 3.0 0.00 0.00 0.00 99 992.2
20190916061122 67 108 1.0 3.0 0.00 0.00 0.00 99 992.2
20190916060623 67 99 1.0 3.0 0.00 0.00 0.00 99 992.2
20190916060123 66 95 1.0 3.0 0.00 0.00 0.00 99 992.2
20190916055623 66 94 1.0 2.0 0.00 0.00 0.00 99 992.0
20190916055125 66 68 0.0 1.0 0.00 0.00 0.00 99 992.0
20190916054623 66 100 1.0 2.0 0.00 0.00 0.00 99 991.9
20190916054124 66 100 1.0 2.0 0.00 0.00 0.00 99 991.9
20190916053623 66 98 1.0 2.0 0.00 0.00 0.00 99 992.0
20190916053122 66 100 1.0 2.0 0.00 0.00 0.00 99 992.0
20190916052625 65 106 1.0 2.0 0.00 0.00 0.00 99 992.0
20190916052122 65 123 0.0 2.0 0.00 0.00 0.00 99 991.9
20190916051623 65 270 0.0 1.0 0.00 0.00 0.00 99 991.9
20190916051122 64 68 0.0 0.0 0.00 0.00 0.00 98 991.8
20190916050623 64 90 0.0 0.0 0.00 0.00 0.00 98 991.8
20190916050123 65 270 0.0 0.0 0.00 0.00 0.00 98 991.8
20190916045622 65 270 0.0 0.0 0.00 0.00 0.00 98 991.6
20190916045122 65 203 0.0 0.0 0.00 0.00 0.00 98 991.6
20190916044626 65 90 0.0 0.0 0.00 0.00 0.00 98 991.7
20190916044123 66 158 0.0 0.0 0.00 0.00 0.00 98 991.7
20190916043624 66 113 0.0 0.0 0.00 0.00 0.00 98 991.9
20190916043123 66 90 0.0 0.0 0.00 0.00 0.00 98 991.9
20190916042622 66 90 0.0 0.0 0.00 0.00 0.00 98 991.9
20190916042122 66 23 0.0 0.0 0.00 0.00 0.00 98 992.0
20190916041622 66 225 0.0 0.0 0.00 0.00 0.00 98 992.0
20190916041122 66 90 0.0 0.0 0.00 0.00 0.00 98 992.0
20190916040623 66 270 0.0 0.0 0.00 0.00 0.00 98 992.0
20190916040125 66 113 0.0 0.0 0.00 0.00 0.00 98 992.0
20190916035623 66 113 0.0 0.0 0.00 0.00 0.00 98 991.8
20190916035123 66 23 0.0 0.0 0.00 0.00 0.00 98 991.8
20190916034644 65 270 0.0 0.0 0.00 0.00 0.00 98 991.9
20190916034123 65 360 0.0 0.0 0.00 0.00 0.00 98 991.9
20190916033623 65 293 0.0 0.0 0.00 0.00 0.00 98 991.9
20190916033123 65 113 0.0 0.0 0.00 0.00 0.00 98 991.9
20190916032622 65 248 0.0 0.0 0.00 0.00 0.00 98 991.9
20190916032122 65 248 0.0 0.0 0.00 0.00 0.00 97 991.7
20190916031643 65 270 0.0 0.0 0.00 0.00 0.00 97 991.7
20190916031123 65 270 0.0 0.0 0.00 0.00 0.00 97 991.6
20190916030623 64 270 0.0 0.0 0.00 0.00 0.00 97 991.6
20190916030125 64 113 0.0 0.0 0.00 0.00 0.00 97 991.6
20190916025622 64 90 0.0 0.0 0.00 0.00 0.00 97 991.5
20190916025122 64 225 0.0 0.0 0.00 0.00 0.00 97 991.5
20190916024622 65 270 0.0 0.0 0.00 0.00 0.00 97 991.4
20190916024122 65 90 0.0 0.0 0.00 0.00 0.00 97 991.4
20190916023623 65 270 0.0 0.0 0.00 0.00 0.00 97 991.3
20190916023122 65 285 0.0 1.0 0.00 0.00 0.00 97 991.3
20190916022623 66 285 0.0 1.0 0.00 0.00 0.00 97 991.3
20190916022123 65 293 0.0 0.0 0.00 0.00 0.00 97 991.4
20190916021643 66 270 0.0 0.0 0.00 0.00 0.00 96 991.4
20190916021144 66 158 0.0 0.0 0.00 0.00 0.00 96 991.2
20190916020624 66 270 0.0 0.0 0.00 0.00 0.00 96 991.2
20190916020122 66 270 0.0 0.0 0.00 0.00 0.00 96 991.4
20190916015622 66 270 0.0 0.0 0.00 0.00 0.00 96 991.4
20190916015126 66 270 0.0 0.0 0.00 0.00 0.00 96 991.4
20190916014622 66 270 0.0 0.0 0.00 0.00 0.00 96 991.3
20190916014124 67 248 0.0 0.0 0.00 0.00 0.00 96 991.3
20190916013623 67 45 0.0 0.0 0.00 0.00 0.00 96 991.2
20190916013123 67 92 0.0 3.0 0.00 0.00 0.00 96 991.2
20190916012623 67 87 0.0 3.0 0.00 0.00 0.00 96 991.2
20190916012123 67 94 1.0 4.0 0.00 0.00 0.00 96 991.1
20190916011626 67 94 1.0 4.0 0.00 0.00 0.00 96 991.1
20190916011123 68 315 0.0 1.0 0.00 0.00 0.00 96 991.0
20190916010624 68 67 0.0 3.0 0.00 0.00 0.00 96 991.0
20190916010122 68 78 0.0 3.0 0.00 0.00 0.00 96 991.1
20190916005624 68 95 0.0 2.0 0.00 0.00 0.00 96 991.1
20190916005123 68 151 0.0 2.0 0.00 0.00 0.00 96 991.1
20190916004623 68 165 1.0 2.0 0.00 0.00 0.00 96 991.0
20190916004143 68 103 1.0 4.0 0.00 0.00 0.00 96 991.0
20190916003623 68 83 2.0 4.0 0.00 0.00 0.00 96 991.1
20190916003125 68 83 2.0 4.0 0.00 0.00 0.00 96 991.1
20190916002644 68 77 2.0 4.0 0.00 0.00 0.00 96 991.1
20190916002123 68 80 2.0 4.0 0.00 0.00 0.00 96 990.9
20190916001623 68 104 1.0 4.0 0.00 0.00 0.00 96 990.9
20190916001123 68 131 1.0 3.0 0.00 0.00 0.00 96 991.0
20190916000623 68 96 2.0 4.0 0.00 0.00 0.00 96 991.0
20190916000123 68 90 2.0 4.0 0.00 0.00 0.00 96 990.9
20190915235627 68 91 2.0 3.0 0.00 0.00 0.00 96 990.9
20190915235123 68 79 2.0 4.0 0.00 0.00 0.00 96 990.9
20190915234623 68 72 2.0 5.0 0.00 0.00 0.00 95 991.1
20190915234122 68 73 2.0 5.0 0.00 0.00 0.00 95 991.1
20190915233622 68 85 2.0 4.0 0.00 0.00 0.00 95 991.1
20190915233144 68 88 2.0 4.0 0.00 0.00 0.00 95 991.1
20190915232623 68 90 2.0 5.0 0.00 0.00 0.00 95 991.1
20190915232123 68 102 3.0 5.0 0.00 0.00 0.00 95 991.1
20190915231623 68 103 2.0 5.0 0.00 0.00 0.00 94 991.1
20190915231122 68 96 3.0 6.0 0.00 0.00 0.00 94 990.9
20190915230622 68 81 3.0 6.0 0.00 0.00 0.00 94 990.9
20190915230122 68 64 2.0 4.0 0.00 0.00 0.00 94 990.9
20190915225626 68 48 3.0 4.0 0.00 0.00 0.00 93 990.9
20190915225122 68 75 3.0 6.0 0.00 0.00 0.00 93 990.9
20190915224644 68 76 3.0 6.0 0.00 0.00 0.00 93 990.8
20190915224123 68 103 3.0 5.0 0.00 0.00 0.00 93 990.8
20190915223623 68 94 3.0 6.0 0.00 0.00 0.00 93 990.6
20190915223123 68 79 4.0 7.0 0.00 0.00 0.00 93 990.6
20190915222622 68 82 3.0 7.0 0.00 0.00 0.00 92 990.6
20190915222123 68 89 4.0 8.0 0.00 0.00 0.00 92 990.5
20190915221624 68 92 4.0 8.0 0.00 0.00 0.00 92 990.5
20190915221123 68 81 3.0 6.0 0.00 0.00 0.00 92 990.5
20190915220623 68 83 3.0 5.0 0.00 0.00 0.00 92 990.5
20190915220123 68 114 3.0 6.0 0.00 0.00 0.00 92 990.5
20190915215622 68 99 4.0 7.0 0.00 0.00 0.00 92 990.5
20190915215122 68 74 4.0 7.0 0.00 0.00 0.00 92 990.5
20190915214622 69 76 4.0 7.0 0.00 0.00 0.00 92 990.5
20190915214125 69 68 4.0 7.0 0.00 0.00 0.00 92 990.5
20190915213626 69 72 4.0 7.0 0.00 0.00 0.00 91 990.4
20190915213145 69 86 4.0 7.0 0.00 0.00 0.00 91 990.4
20190915212622 69 79 4.0 7.0 0.00 0.00 0.00 91 990.4
20190915212122 69 79 4.0 7.0 0.00 0.00 0.00 91 990.5
20190915211626 69 97 4.0 7.0 0.00 0.00 0.00 90 990.5
20190915211123 70 94 3.0 7.0 0.00 0.00 0.00 90 990.4
20190915210623 70 43 3.0 7.0 0.00 0.00 0.00 90 990.4
20190915210148 70 69 3.0 6.0 0.00 0.00 0.00 90 990.5
20190915205622 70 101 3.0 6.0 0.00 0.00 0.00 90 990.5
20190915205124 70 116 3.0 5.0 0.00 0.00 0.00 90 990.5
20190915204622 70 106 3.0 5.0 0.00 0.00 0.00 89 990.4
20190915204122 70 60 3.0 5.0 0.00 0.00 0.00 89 990.4
20190915203622 70 98 3.0 5.0 0.00 0.00 0.00 89 990.3
20190915203122 71 117 3.0 5.0 0.00 0.00 0.00 89 990.3
20190915202625 71 109 3.0 7.0 0.00 0.00 0.00 89 990.3
20190915202123 71 104 4.0 7.0 0.00 0.00 0.00 89 990.4
20190915201623 71 96 4.0 7.0 0.00 0.00 0.00 89 990.4
20190915201144 71 100 4.0 7.0 0.00 0.00 0.00 89 990.6
20190915200622 71 105 4.0 8.0 0.00 0.00 0.00 89 990.6
20190915200122 71 100 4.0 8.0 0.00 0.00 0.00 89 990.6
20190915195643 71 79 3.0 6.0 0.00 0.00 0.00 89 990.6
20190915195125 71 79 2.0 5.0 0.00 0.00 0.00 89 990.6
20190915194622 71 105 2.0 5.0 0.00 0.00 0.00 89 990.8
20190915194123 71 103 2.0 5.0 0.00 0.00 0.00 89 990.8
20190915193623 71 90 3.0 7.0 0.00 0.00 0.00 89 990.9
20190915193124 71 83 4.0 7.0 0.00 0.00 0.00 89 990.9
20190915192625 71 88 3.0 7.0 0.00 0.00 0.00 88 990.9
20190915192122 72 104 2.0 5.0 0.00 0.00 0.00 87 990.8
20190915191626 72 70 3.0 6.0 0.00 0.00 0.00 87 990.8
20190915191143 72 61 2.0 6.0 0.00 0.00 0.00 86 990.8
20190915190623 73 98 1.0 4.0 0.00 0.00 0.00 86 990.8
20190915190123 73 46 2.0 3.0 0.00 0.00 0.00 86 990.8
20190915185622 73 91 2.0 4.0 0.00 0.00 0.00 86 990.9
20190915185123 71 115 2.0 4.0 0.00 0.00 0.00 89 990.9
20190915184622 71 122 2.0 6.0 0.00 0.00 0.00 88 991.0
20190915184143 72 108 2.0 6.0 0.00 0.00 0.00 88 991.0
20190915183623 72 60 2.0 5.0 0.00 0.00 0.00 88 991.0
20190915183146 72 38 2.0 4.0 0.00 0.00 0.00 88 991.0
20190915182623 72 155 2.0 4.0 0.00 0.00 0.00 88 991.0
20190915182123 72 286 2.0 4.0 0.00 0.00 0.00 87 990.9
20190915181622 73 325 2.0 5.0 0.00 0.00 0.00 86 990.9
20190915181122 75 81 3.0 5.0 0.00 0.00 0.00 85 991.1
20190915180644 75 89 4.0 7.0 0.00 0.00 0.00 86 991.1
20190915180122 75 90 5.0 8.0 0.00 0.00 0.00 86 991.1
20190915175622 75 94 4.0 8.0 0.00 0.00 0.00 85 991.1
20190915175143 75 88 3.0 5.0 0.00 0.00 0.00 85 991.1
20190915174623 75 100 2.0 5.0 0.00 0.00 0.00 85 991.1
20190915174124 76 119 3.0 6.0 0.00 0.00 0.00 86 991.1
20190915173622 75 103 5.0 6.0 0.00 0.00 0.00 86 991.4
20190915173142 74 95 4.0 6.0 0.00 0.00 0.00 86 991.4
20190915172623 74 98 4.0 7.0 0.00 0.00 0.00 86 991.4
20190915172124 75 84 5.0 7.0 0.00 0.00 0.00 86 991.4
20190915171623 74 77 4.0 6.0 0.00 0.00 0.00 86 991.4
20190915171144 75 83 5.0 9.0 0.00 0.00 0.00 86 991.6
20190915170625 75 66 5.0 9.0 0.00 0.00 0.00 85 991.6
20190915170122 75 58 5.0 7.0 0.00 0.00 0.00 85 991.8
20190915165623 75 86 4.0 7.0 0.00 0.00 0.00 85 991.8
20190915165123 75 74 4.0 8.0 0.00 0.00 0.00 85 991.8
20190915164623 75 99 4.0 8.0 0.00 0.00 0.00 84 991.9
20190915164123 75 71 5.0 10.0 0.00 0.00 0.00 84 991.9
20190915163644 75 61 6.0 11.0 0.00 0.00 0.00 84 992.1
20190915163126 75 79 6.0 11.0 0.00 0.00 0.00 83 992.1